Year,Month,Day,Hour,Minute,Value (Times are PST for temperature in C)
2015,06,27,00,00,22.00
2015,06,27,00,01,22.00
2015,06,27,00,02,22.00
2015,06,27,00,03,22.00
2015,06,27,00,04,22.00
2015,06,27,00,05,21.90
2015,06,27,00,06,21.90
2015,06,27,00,07,21.90
2015,06,27,00,08,21.90
2015,06,27,00,09,21.90
2015,06,27,00,10,21.90
2015,06,27,00,11,21.90
2015,06,27,00,12,22.00
2015,06,27,00,13,22.00
2015,06,27,00,14,22.00
2015,06,27,00,15,22.00
2015,06,27,00,16,22.00
2015,06,27,00,17,22.00
2015,06,27,00,18,21.90
2015,06,27,00,19,21.90
2015,06,27,00,20,21.90
2015,06,27,00,21,21.90
2015,06,27,00,22,21.90
2015,06,27,00,23,21.90
2015,06,27,00,24,21.90
2015,06,27,00,25,21.90
2015,06,27,00,26,21.80
2015,06,27,00,27,21.80
2015,06,27,00,28,21.80
2015,06,27,00,29,21.80
2015,06,27,00,30,21.80
2015,06,27,00,31,21.80
2015,06,27,00,32,21.90
2015,06,27,00,33,21.90
2015,06,27,00,34,21.90
2015,06,27,00,35,21.80
2015,06,27,00,36,21.80
2015,06,27,00,37,21.80
2015,06,27,00,38,21.80
2015,06,27,00,39,21.80
2015,06,27,00,40,21.80
2015,06,27,00,41,21.80
2015,06,27,00,42,21.80
2015,06,27,00,43,21.80
2015,06,27,00,44,21.80
2015,06,27,00,45,21.80
2015,06,27,00,46,21.80
2015,06,27,00,47,21.80
2015,06,27,00,48,21.80
2015,06,27,00,49,21.80
2015,06,27,00,50,21.70
2015,06,27,00,51,21.70
2015,06,27,00,52,21.70
2015,06,27,00,53,21.70
2015,06,27,00,54,21.60
2015,06,27,00,55,21.60
2015,06,27,00,56,21.60
2015,06,27,00,57,21.60
2015,06,27,00,58,21.50
2015,06,27,00,59,21.50
2015,06,27,01,00,21.50
2015,06,27,01,01,21.50
2015,06,27,01,02,21.50
2015,06,27,01,03,21.50
2015,06,27,01,04,21.50
2015,06,27,01,05,21.50
2015,06,27,01,06,21.40
2015,06,27,01,07,21.40
2015,06,27,01,08,21.40
2015,06,27,01,09,21.40
2015,06,27,01,10,21.40
2015,06,27,01,11,21.30
2015,06,27,01,12,21.30
2015,06,27,01,13,21.30
2015,06,27,01,14,21.30
2015,06,27,01,15,21.20
2015,06,27,01,16,21.20
2015,06,27,01,17,21.20
2015,06,27,01,18,21.20
2015,06,27,01,19,21.10
2015,06,27,01,20,21.10
2015,06,27,01,21,21.10
2015,06,27,01,22,21.10
2015,06,27,01,23,21.10
2015,06,27,01,24,21.10
2015,06,27,01,25,21.00
2015,06,27,01,26,21.00
2015,06,27,01,27,21.00
2015,06,27,01,28,21.00
2015,06,27,01,29,21.00
2015,06,27,01,30,21.00
2015,06,27,01,31,21.00
2015,06,27,01,32,20.90
2015,06,27,01,33,20.90
2015,06,27,01,34,20.90
2015,06,27,01,35,20.90
2015,06,27,01,36,20.90
2015,06,27,01,37,20.80
2015,06,27,01,38,20.80
2015,06,27,01,39,20.80
2015,06,27,01,40,20.70
2015,06,27,01,41,20.70
2015,06,27,01,42,20.70
2015,06,27,01,43,20.70
2015,06,27,01,44,20.70
2015,06,27,01,45,20.70
2015,06,27,01,46,20.60
2015,06,27,01,47,20.60
2015,06,27,01,48,20.60
2015,06,27,01,49,20.60
2015,06,27,01,50,20.60
2015,06,27,01,51,20.50
2015,06,27,01,52,20.50
2015,06,27,01,53,20.50
2015,06,27,01,54,20.40
2015,06,27,01,55,20.40
2015,06,27,01,56,20.40
2015,06,27,01,57,20.40
2015,06,27,01,58,20.40
2015,06,27,01,59,20.30
2015,06,27,02,00,20.30
2015,06,27,02,01,20.30
2015,06,27,02,02,20.30
2015,06,27,02,03,20.30
2015,06,27,02,04,20.30
2015,06,27,02,05,20.20
2015,06,27,02,06,20.20
2015,06,27,02,07,20.20
2015,06,27,02,08,20.20
2015,06,27,02,09,20.20
2015,06,27,02,10,20.10
2015,06,27,02,11,20.10
2015,06,27,02,12,20.10
2015,06,27,02,13,20.10
2015,06,27,02,14,20.10
2015,06,27,02,15,20.00
2015,06,27,02,16,20.00
2015,06,27,02,17,20.00
2015,06,27,02,18,20.00
2015,06,27,02,19,20.00
2015,06,27,02,20,20.00
2015,06,27,02,21,19.90
2015,06,27,02,22,19.90
2015,06,27,02,23,19.90
2015,06,27,02,24,19.90
2015,06,27,02,25,19.90
2015,06,27,02,26,19.90
2015,06,27,02,27,19.90
2015,06,27,02,28,19.90
2015,06,27,02,29,19.80
2015,06,27,02,30,19.80
2015,06,27,02,31,19.80
2015,06,27,02,32,19.80
2015,06,27,02,33,19.80
2015,06,27,02,34,19.80
2015,06,27,02,35,19.80
2015,06,27,02,36,19.80
2015,06,27,02,37,19.80
2015,06,27,02,38,19.70
2015,06,27,02,39,19.70
2015,06,27,02,40,19.70
2015,06,27,02,41,19.70
2015,06,27,02,42,19.70
2015,06,27,02,43,19.70
2015,06,27,02,44,19.60
2015,06,27,02,45,19.60
2015,06,27,02,46,19.60
2015,06,27,02,47,19.60
2015,06,27,02,48,19.60
2015,06,27,02,49,19.60
2015,06,27,02,50,19.60
2015,06,27,02,51,19.60
2015,06,27,02,52,19.50
2015,06,27,02,53,19.50
2015,06,27,02,54,19.50
2015,06,27,02,55,19.50
2015,06,27,02,56,19.50
2015,06,27,02,57,19.50
2015,06,27,02,58,19.50
2015,06,27,02,59,19.50
2015,06,27,03,00,19.40
2015,06,27,03,01,19.40
2015,06,27,03,02,19.40
2015,06,27,03,03,19.40
2015,06,27,03,04,19.40
2015,06,27,03,05,19.40
2015,06,27,03,06,19.40
2015,06,27,03,07,19.40
2015,06,27,03,08,19.40
2015,06,27,03,09,19.40
2015,06,27,03,10,19.40
2015,06,27,03,11,19.30
2015,06,27,03,12,19.30
2015,06,27,03,13,19.30
2015,06,27,03,14,19.30
2015,06,27,03,15,19.30
2015,06,27,03,16,19.30
2015,06,27,03,17,19.30
2015,06,27,03,18,19.20
2015,06,27,03,19,19.20
2015,06,27,03,20,19.20
2015,06,27,03,21,19.20
2015,06,27,03,22,19.20
2015,06,27,03,23,19.20
2015,06,27,03,24,19.20
2015,06,27,03,25,19.20
2015,06,27,03,26,19.20
2015,06,27,03,27,19.10
2015,06,27,03,28,19.10
2015,06,27,03,29,19.10
2015,06,27,03,30,19.10
2015,06,27,03,31,19.10
2015,06,27,03,32,19.10
2015,06,27,03,33,19.10
2015,06,27,03,34,19.10
2015,06,27,03,35,19.10
2015,06,27,03,36,19.00
2015,06,27,03,37,19.00
2015,06,27,03,38,19.00
2015,06,27,03,39,19.00
2015,06,27,03,40,19.00
2015,06,27,03,41,19.00
2015,06,27,03,42,19.00
2015,06,27,03,43,19.00
2015,06,27,03,44,19.00
2015,06,27,03,45,19.00
2015,06,27,03,46,18.90
2015,06,27,03,47,18.90
2015,06,27,03,48,18.90
2015,06,27,03,49,18.90
2015,06,27,03,50,18.90
2015,06,27,03,51,18.80
2015,06,27,03,52,18.80
2015,06,27,03,53,18.80
2015,06,27,03,54,18.80
2015,06,27,03,55,18.80
2015,06,27,03,56,18.80
2015,06,27,03,57,18.80
2015,06,27,03,58,18.80
2015,06,27,03,59,18.70
2015,06,27,04,00,18.70
2015,06,27,04,01,18.70
2015,06,27,04,02,18.70
2015,06,27,04,03,18.70
2015,06,27,04,04,18.70
2015,06,27,04,05,18.60
2015,06,27,04,06,18.60
2015,06,27,04,07,18.60
2015,06,27,04,08,18.60
2015,06,27,04,09,18.60
2015,06,27,04,10,18.60
2015,06,27,04,11,18.50
2015,06,27,04,12,18.50
2015,06,27,04,13,18.50
2015,06,27,04,14,18.50
2015,06,27,04,15,18.50
2015,06,27,04,16,18.40
2015,06,27,04,17,18.40
2015,06,27,04,18,18.40
2015,06,27,04,19,18.40
2015,06,27,04,20,18.40
2015,06,27,04,21,18.30
2015,06,27,04,22,18.30
2015,06,27,04,23,18.30
2015,06,27,04,24,18.30
2015,06,27,04,25,18.30
2015,06,27,04,26,18.30
2015,06,27,04,27,18.20
2015,06,27,04,28,18.20
2015,06,27,04,29,18.20
2015,06,27,04,30,18.20
2015,06,27,04,31,18.10
2015,06,27,04,32,18.10
2015,06,27,04,33,18.10
2015,06,27,04,34,18.10
2015,06,27,04,35,18.10
2015,06,27,04,36,18.10
2015,06,27,04,37,18.00
2015,06,27,04,38,18.00
2015,06,27,04,39,18.00
2015,06,27,04,40,18.00
2015,06,27,04,41,18.00
2015,06,27,04,42,17.90
2015,06,27,04,43,17.90
2015,06,27,04,44,17.90
2015,06,27,04,45,17.90
2015,06,27,04,46,17.90
2015,06,27,04,47,17.90
2015,06,27,04,48,17.90
2015,06,27,04,49,17.90
2015,06,27,04,50,17.90
2015,06,27,04,51,17.90
2015,06,27,04,52,17.90
2015,06,27,04,53,17.80
2015,06,27,04,54,17.80
2015,06,27,04,55,17.80
2015,06,27,04,56,17.80
2015,06,27,04,57,17.80
2015,06,27,04,58,17.80
2015,06,27,04,59,17.80
2015,06,27,05,00,17.80
2015,06,27,05,01,17.80
2015,06,27,05,02,17.80
2015,06,27,05,03,17.70
2015,06,27,05,04,17.70
2015,06,27,05,05,17.70
2015,06,27,05,06,17.70
2015,06,27,05,07,17.70
2015,06,27,05,08,17.70
2015,06,27,05,09,17.70
2015,06,27,05,10,17.70
2015,06,27,05,11,17.60
2015,06,27,05,12,17.60
2015,06,27,05,13,17.60
2015,06,27,05,14,17.60
2015,06,27,05,15,17.60
2015,06,27,05,16,17.60
2015,06,27,05,17,17.60
2015,06,27,05,18,17.50
2015,06,27,05,19,17.50
2015,06,27,05,20,17.50
2015,06,27,05,21,17.50
2015,06,27,05,22,17.40
2015,06,27,05,23,17.40
2015,06,27,05,24,17.40
2015,06,27,05,25,17.40
2015,06,27,05,26,17.30
2015,06,27,05,27,17.30
2015,06,27,05,28,17.20
2015,06,27,05,29,17.20
2015,06,27,05,30,17.20
2015,06,27,05,31,17.20
2015,06,27,05,32,17.20
2015,06,27,05,33,17.20
2015,06,27,05,34,17.10
2015,06,27,05,35,17.10
2015,06,27,05,36,17.10
2015,06,27,05,37,17.00
2015,06,27,05,38,17.00
2015,06,27,05,39,16.90
2015,06,27,05,40,16.90
2015,06,27,05,41,16.90
2015,06,27,05,42,16.90
2015,06,27,05,43,16.90
2015,06,27,05,44,16.90
2015,06,27,05,45,16.90
2015,06,27,05,46,16.90
2015,06,27,05,47,16.90
2015,06,27,05,48,16.90
2015,06,27,05,49,16.90
2015,06,27,05,50,16.90
2015,06,27,05,51,16.90
2015,06,27,05,52,16.90
2015,06,27,05,53,16.90
2015,06,27,05,54,16.90
2015,06,27,05,55,16.90
2015,06,27,05,56,16.90
2015,06,27,05,57,16.90
2015,06,27,05,58,16.90
2015,06,27,05,59,16.90
2015,06,27,06,00,16.90
2015,06,27,06,01,16.90
2015,06,27,06,02,16.90
2015,06,27,06,03,16.90
2015,06,27,06,04,16.90
2015,06,27,06,05,16.80
2015,06,27,06,06,16.80
2015,06,27,06,07,16.80
2015,06,27,06,08,16.80
2015,06,27,06,09,16.80
2015,06,27,06,10,16.70
2015,06,27,06,11,16.70
2015,06,27,06,12,16.70
2015,06,27,06,13,16.70
2015,06,27,06,14,16.60
2015,06,27,06,15,16.60
2015,06,27,06,16,16.60
2015,06,27,06,17,16.60
2015,06,27,06,18,16.60
2015,06,27,06,19,16.50
2015,06,27,06,20,16.50
2015,06,27,06,21,16.50
2015,06,27,06,22,16.40
2015,06,27,06,23,16.40
2015,06,27,06,24,16.40
2015,06,27,06,25,16.30
2015,06,27,06,26,16.30
2015,06,27,06,27,16.30
2015,06,27,06,28,16.30
2015,06,27,06,29,16.20
2015,06,27,06,30,16.20
2015,06,27,06,31,16.20
2015,06,27,06,32,16.20
2015,06,27,06,33,16.10
2015,06,27,06,34,16.10
2015,06,27,06,35,16.10
2015,06,27,06,36,16.10
2015,06,27,06,37,16.10
2015,06,27,06,38,16.10
2015,06,27,06,39,16.10
2015,06,27,06,40,16.10
2015,06,27,06,41,16.10
2015,06,27,06,42,16.10
2015,06,27,06,43,16.10
2015,06,27,06,44,16.20
2015,06,27,06,45,16.20
2015,06,27,06,46,16.20
2015,06,27,06,47,16.30
2015,06,27,06,48,16.40
2015,06,27,06,49,16.50
2015,06,27,06,50,16.60
2015,06,27,06,51,16.70
2015,06,27,06,52,16.70
2015,06,27,06,53,16.80
2015,06,27,06,54,16.80
2015,06,27,06,55,16.90
2015,06,27,06,56,17.00
2015,06,27,06,57,17.00
2015,06,27,06,58,17.10
2015,06,27,06,59,17.10
2015,06,27,07,00,17.20
2015,06,27,07,01,17.20
2015,06,27,07,02,17.30
2015,06,27,07,03,17.30
2015,06,27,07,04,17.40
2015,06,27,07,05,17.50
2015,06,27,07,06,17.60
2015,06,27,07,07,17.60
2015,06,27,07,08,17.70
2015,06,27,07,09,17.80
2015,06,27,07,10,17.80
2015,06,27,07,11,17.90
2015,06,27,07,12,18.00
2015,06,27,07,13,18.00
2015,06,27,07,14,18.10
2015,06,27,07,15,18.20
2015,06,27,07,16,18.30
2015,06,27,07,17,18.40
2015,06,27,07,18,18.50
2015,06,27,07,19,18.60
2015,06,27,07,20,18.60
2015,06,27,07,21,18.70
2015,06,27,07,22,18.80
2015,06,27,07,23,18.90
2015,06,27,07,24,19.00
2015,06,27,07,25,19.10
2015,06,27,07,26,19.20
2015,06,27,07,27,19.40
2015,06,27,07,28,19.50
2015,06,27,07,29,19.60
2015,06,27,07,30,19.60
2015,06,27,07,31,19.70
2015,06,27,07,32,19.60
2015,06,27,07,33,19.60
2015,06,27,07,34,19.60
2015,06,27,07,35,19.50
2015,06,27,07,36,19.50
2015,06,27,07,37,19.50
2015,06,27,07,38,19.50
2015,06,27,07,39,19.50
2015,06,27,07,40,19.60
2015,06,27,07,41,19.60
2015,06,27,07,42,19.60
2015,06,27,07,43,19.60
2015,06,27,07,44,19.70
2015,06,27,07,45,19.70
2015,06,27,07,46,19.70
2015,06,27,07,47,19.70
2015,06,27,07,48,19.70
2015,06,27,07,49,19.70
2015,06,27,07,50,19.70
2015,06,27,07,51,19.70
2015,06,27,07,52,19.70
2015,06,27,07,53,19.70
2015,06,27,07,54,19.70
2015,06,27,07,55,19.70
2015,06,27,07,56,19.70
2015,06,27,07,57,19.70
2015,06,27,07,58,19.80
2015,06,27,07,59,19.80
2015,06,27,08,00,19.80
2015,06,27,08,01,19.90
2015,06,27,08,02,20.00
2015,06,27,08,03,20.00
2015,06,27,08,04,20.10
2015,06,27,08,05,20.20
2015,06,27,08,06,20.30
2015,06,27,08,07,20.30
2015,06,27,08,08,20.30
2015,06,27,08,09,20.30
2015,06,27,08,10,20.30
2015,06,27,08,11,20.30
2015,06,27,08,12,20.30
2015,06,27,08,13,20.40
2015,06,27,08,14,20.40
2015,06,27,08,15,20.40
2015,06,27,08,16,20.40
2015,06,27,08,17,20.40
2015,06,27,08,18,20.40
2015,06,27,08,19,20.50
2015,06,27,08,20,20.50
2015,06,27,08,21,20.50
2015,06,27,08,22,20.50
2015,06,27,08,23,20.50
2015,06,27,08,24,20.50
2015,06,27,08,25,20.50
2015,06,27,08,26,20.60
2015,06,27,08,27,20.60
2015,06,27,08,28,20.70
2015,06,27,08,29,20.70
2015,06,27,08,30,20.80
2015,06,27,08,31,20.80
2015,06,27,08,32,20.90
2015,06,27,08,33,21.00
2015,06,27,08,34,21.10
2015,06,27,08,35,21.10
2015,06,27,08,36,21.20
2015,06,27,08,37,21.20
2015,06,27,08,38,21.20
2015,06,27,08,39,21.20
2015,06,27,08,40,21.10
2015,06,27,08,41,20.90
2015,06,27,08,42,20.80
2015,06,27,08,43,20.60
2015,06,27,08,44,20.40
2015,06,27,08,45,20.30
2015,06,27,08,46,20.20
2015,06,27,08,47,20.20
2015,06,27,08,48,20.30
2015,06,27,08,49,20.30
2015,06,27,08,50,20.30
2015,06,27,08,51,20.30
2015,06,27,08,52,20.40
2015,06,27,08,53,20.40
2015,06,27,08,54,20.40
2015,06,27,08,55,20.40
2015,06,27,08,56,20.40
2015,06,27,08,57,20.40
2015,06,27,08,58,20.40
2015,06,27,08,59,20.40
2015,06,27,09,00,20.50
2015,06,27,09,01,20.50
2015,06,27,09,02,20.60
2015,06,27,09,03,20.60
2015,06,27,09,04,20.60
2015,06,27,09,05,20.60
2015,06,27,09,06,20.70
2015,06,27,09,07,20.70
2015,06,27,09,08,20.70
2015,06,27,09,09,20.80
2015,06,27,09,10,20.80
2015,06,27,09,11,20.80
2015,06,27,09,12,20.90
2015,06,27,09,13,20.90
2015,06,27,09,14,20.90
2015,06,27,09,15,20.80
2015,06,27,09,16,20.70
2015,06,27,09,17,20.70
2015,06,27,09,18,20.70
2015,06,27,09,19,20.70
2015,06,27,09,20,20.70
2015,06,27,09,21,20.70
2015,06,27,09,22,20.70
2015,06,27,09,23,20.80
2015,06,27,09,24,20.80
2015,06,27,09,25,20.90
2015,06,27,09,26,21.00
2015,06,27,09,27,21.10
2015,06,27,09,28,21.10
2015,06,27,09,29,21.10
2015,06,27,09,30,21.10
2015,06,27,09,31,21.20
2015,06,27,09,32,21.20
2015,06,27,09,33,21.40
2015,06,27,09,34,21.50
2015,06,27,09,35,21.60
2015,06,27,09,36,21.70
2015,06,27,09,37,21.80
2015,06,27,09,38,21.90
2015,06,27,09,39,22.00
2015,06,27,09,40,22.00
2015,06,27,09,41,22.00
2015,06,27,09,42,22.00
2015,06,27,09,43,22.10
2015,06,27,09,44,22.10
2015,06,27,09,45,22.00
2015,06,27,09,46,21.90
2015,06,27,09,47,21.80
2015,06,27,09,48,21.80
2015,06,27,09,49,21.80
2015,06,27,09,50,21.80
2015,06,27,09,51,21.90
2015,06,27,09,52,22.00
2015,06,27,09,53,22.10
2015,06,27,09,54,22.10
2015,06,27,09,55,22.20
2015,06,27,09,56,22.20
2015,06,27,09,57,22.20
2015,06,27,09,58,22.20
2015,06,27,09,59,22.20
2015,06,27,10,00,22.20
2015,06,27,10,01,22.20
2015,06,27,10,02,22.20
2015,06,27,10,03,22.20
2015,06,27,10,04,22.20
2015,06,27,10,05,22.30
2015,06,27,10,06,22.30
2015,06,27,10,07,22.30
2015,06,27,10,08,22.40
2015,06,27,10,09,22.40
2015,06,27,10,10,22.40
2015,06,27,10,11,22.30
2015,06,27,10,12,22.30
2015,06,27,10,13,22.30
2015,06,27,10,14,22.20
2015,06,27,10,15,22.20
2015,06,27,10,16,22.10
2015,06,27,10,17,22.20
2015,06,27,10,18,22.20
2015,06,27,10,19,22.30
2015,06,27,10,20,22.30
2015,06,27,10,21,22.30
2015,06,27,10,22,22.30
2015,06,27,10,23,22.30
2015,06,27,10,24,22.30
2015,06,27,10,25,22.20
2015,06,27,10,26,22.20
2015,06,27,10,27,22.20
2015,06,27,10,28,22.20
2015,06,27,10,29,22.30
2015,06,27,10,30,22.30
2015,06,27,10,31,22.40
2015,06,27,10,32,22.40
2015,06,27,10,33,22.30
2015,06,27,10,34,22.30
2015,06,27,10,35,22.30
2015,06,27,10,36,22.30
2015,06,27,10,37,22.30
2015,06,27,10,38,22.30
2015,06,27,10,39,22.20
2015,06,27,10,40,22.10
2015,06,27,10,41,22.10
2015,06,27,10,42,22.00
2015,06,27,10,43,22.00
2015,06,27,10,44,21.90
2015,06,27,10,45,21.90
2015,06,27,10,46,22.00
2015,06,27,10,47,22.00
2015,06,27,10,48,22.10
2015,06,27,10,49,22.10
2015,06,27,10,50,22.10
2015,06,27,10,51,22.10
2015,06,27,10,52,22.10
2015,06,27,10,53,22.00
2015,06,27,10,54,22.00
2015,06,27,10,55,22.00
2015,06,27,10,56,21.90
2015,06,27,10,57,21.80
2015,06,27,10,58,21.70
2015,06,27,10,59,21.70
2015,06,27,11,00,21.70
2015,06,27,11,01,21.80
2015,06,27,11,02,21.80
2015,06,27,11,03,21.90
2015,06,27,11,04,22.00
2015,06,27,11,05,22.00
2015,06,27,11,06,22.00
2015,06,27,11,07,22.00
2015,06,27,11,08,21.90
2015,06,27,11,09,21.90
2015,06,27,11,10,21.90
2015,06,27,11,11,22.00
2015,06,27,11,12,22.00
2015,06,27,11,13,22.00
2015,06,27,11,14,22.20
2015,06,27,11,15,22.30
2015,06,27,11,16,22.40
2015,06,27,11,17,22.50
2015,06,27,11,18,22.50
2015,06,27,11,19,22.50
2015,06,27,11,20,22.40
2015,06,27,11,21,22.40
2015,06,27,11,22,22.30
2015,06,27,11,23,22.40
2015,06,27,11,24,22.40
2015,06,27,11,25,22.50
2015,06,27,11,26,22.60
2015,06,27,11,27,22.70
2015,06,27,11,28,22.80
2015,06,27,11,29,22.90
2015,06,27,11,30,23.00
2015,06,27,11,31,23.00
2015,06,27,11,32,23.10
2015,06,27,11,33,23.20
2015,06,27,11,34,23.30
2015,06,27,11,35,23.30
2015,06,27,11,36,23.40
2015,06,27,11,37,23.50
2015,06,27,11,38,23.60
2015,06,27,11,39,23.80
2015,06,27,11,40,23.90
2015,06,27,11,41,23.90
2015,06,27,11,42,23.90
2015,06,27,11,43,24.00
2015,06,27,11,44,24.10
2015,06,27,11,45,24.30
2015,06,27,11,46,24.40
2015,06,27,11,47,24.40
2015,06,27,11,48,24.30
2015,06,27,11,49,24.20
2015,06,27,11,50,24.10
2015,06,27,11,51,24.00
2015,06,27,11,52,23.90
2015,06,27,11,53,23.70
2015,06,27,11,54,23.70
2015,06,27,11,55,23.70
2015,06,27,11,56,23.80
2015,06,27,11,57,23.90
2015,06,27,11,58,24.00
2015,06,27,11,59,24.10
2015,06,27,12,00,24.30
2015,06,27,12,01,24.50
2015,06,27,12,02,24.70
2015,06,27,12,03,25.00
2015,06,27,12,04,25.20
2015,06,27,12,05,25.50
2015,06,27,12,06,25.70
2015,06,27,12,07,25.90
2015,06,27,12,08,26.10
2015,06,27,12,09,26.20
2015,06,27,12,10,26.20
2015,06,27,12,11,26.10
2015,06,27,12,12,26.00
2015,06,27,12,13,25.80
2015,06,27,12,14,25.70
2015,06,27,12,15,25.50
2015,06,27,12,16,25.30
2015,06,27,12,17,25.20
2015,06,27,12,18,25.10
2015,06,27,12,19,25.10
2015,06,27,12,20,24.90
2015,06,27,12,21,24.80
2015,06,27,12,22,24.70
2015,06,27,12,23,24.60
2015,06,27,12,24,24.50
2015,06,27,12,25,24.40
2015,06,27,12,26,24.50
2015,06,27,12,27,24.50
2015,06,27,12,28,24.50
2015,06,27,12,29,24.60
2015,06,27,12,30,24.60
2015,06,27,12,31,24.50
2015,06,27,12,32,24.40
2015,06,27,12,33,24.40
2015,06,27,12,34,24.50
2015,06,27,12,35,24.60
2015,06,27,12,36,24.60
2015,06,27,12,37,24.60
2015,06,27,12,38,24.50
2015,06,27,12,39,24.50
2015,06,27,12,40,24.50
2015,06,27,12,41,24.40
2015,06,27,12,42,24.50
2015,06,27,12,43,24.50
2015,06,27,12,44,24.50
2015,06,27,12,45,24.40
2015,06,27,12,46,24.40
2015,06,27,12,47,24.40
2015,06,27,12,48,24.40
2015,06,27,12,49,24.50
2015,06,27,12,50,24.60
2015,06,27,12,51,24.60
2015,06,27,12,52,24.60
2015,06,27,12,53,24.70
2015,06,27,12,54,24.70
2015,06,27,12,55,24.80
2015,06,27,12,56,25.00
2015,06,27,12,57,25.20
2015,06,27,12,58,25.50
2015,06,27,12,59,25.80
2015,06,27,13,00,26.10
2015,06,27,13,01,26.30
2015,06,27,13,02,26.30
2015,06,27,13,03,26.10
2015,06,27,13,04,25.90
2015,06,27,13,05,25.80
2015,06,27,13,06,25.80
2015,06,27,13,07,25.80
2015,06,27,13,08,25.90
2015,06,27,13,09,26.00
2015,06,27,13,10,25.90
2015,06,27,13,11,25.70
2015,06,27,13,12,25.40
2015,06,27,13,13,25.20
2015,06,27,13,14,25.10
2015,06,27,13,15,25.00
2015,06,27,13,16,25.00
2015,06,27,13,17,25.00
2015,06,27,13,18,25.00
2015,06,27,13,19,25.00
2015,06,27,13,20,25.10
2015,06,27,13,21,25.10
2015,06,27,13,22,25.10
2015,06,27,13,23,25.10
2015,06,27,13,24,25.10
2015,06,27,13,25,25.00
2015,06,27,13,26,25.10
2015,06,27,13,27,25.10
2015,06,27,13,28,25.20
2015,06,27,13,29,25.20
2015,06,27,13,30,25.30
2015,06,27,13,31,25.30
2015,06,27,13,32,25.40
2015,06,27,13,33,25.40
2015,06,27,13,34,25.40
2015,06,27,13,35,25.40
2015,06,27,13,36,25.40
2015,06,27,13,37,25.30
2015,06,27,13,38,25.20
2015,06,27,13,39,25.20
2015,06,27,13,40,25.20
2015,06,27,13,41,25.20
2015,06,27,13,42,25.20
2015,06,27,13,43,25.20
2015,06,27,13,44,25.20
2015,06,27,13,45,25.30
2015,06,27,13,46,25.40
2015,06,27,13,47,25.60
2015,06,27,13,48,25.70
2015,06,27,13,49,25.90
2015,06,27,13,50,26.00
2015,06,27,13,51,26.10
2015,06,27,13,52,26.30
2015,06,27,13,53,26.30
2015,06,27,13,54,26.30
2015,06,27,13,55,26.30
2015,06,27,13,56,26.20
2015,06,27,13,57,26.10
2015,06,27,13,58,26.10
2015,06,27,13,59,26.10
2015,06,27,14,00,26.00
2015,06,27,14,01,26.00
2015,06,27,14,02,25.90
2015,06,27,14,03,25.80
2015,06,27,14,04,25.80
2015,06,27,14,05,25.80
2015,06,27,14,06,25.80
2015,06,27,14,07,25.80
2015,06,27,14,08,25.80
2015,06,27,14,09,25.80
2015,06,27,14,10,26.00
2015,06,27,14,11,26.10
2015,06,27,14,12,26.20
2015,06,27,14,13,26.40
2015,06,27,14,14,26.60
2015,06,27,14,15,26.70
2015,06,27,14,16,26.80
2015,06,27,14,17,26.70
2015,06,27,14,18,26.60
2015,06,27,14,19,26.60
2015,06,27,14,20,26.60
2015,06,27,14,21,26.70
2015,06,27,14,22,26.70
2015,06,27,14,23,26.60
2015,06,27,14,24,26.50
2015,06,27,14,25,26.40
2015,06,27,14,26,26.30
2015,06,27,14,27,26.30
2015,06,27,14,28,26.30
2015,06,27,14,29,26.40
2015,06,27,14,30,26.50
2015,06,27,14,31,26.50
2015,06,27,14,32,26.60
2015,06,27,14,33,26.60
2015,06,27,14,34,26.60
2015,06,27,14,35,26.60
2015,06,27,14,36,26.70
2015,06,27,14,37,26.80
2015,06,27,14,38,26.80
2015,06,27,14,39,26.90
2015,06,27,14,40,27.00
2015,06,27,14,41,27.00
2015,06,27,14,42,27.10
2015,06,27,14,43,27.10
2015,06,27,14,44,27.10
2015,06,27,14,45,27.10
2015,06,27,14,46,27.10
2015,06,27,14,47,27.20
2015,06,27,14,48,27.30
2015,06,27,14,49,27.50
2015,06,27,14,50,27.70
2015,06,27,14,51,27.90
2015,06,27,14,52,28.10
2015,06,27,14,53,28.20
2015,06,27,14,54,28.30
2015,06,27,14,55,28.30
2015,06,27,14,56,28.30
2015,06,27,14,57,28.30
2015,06,27,14,58,28.30
2015,06,27,14,59,28.30
2015,06,27,15,00,28.30
2015,06,27,15,01,28.40
2015,06,27,15,02,28.50
2015,06,27,15,03,28.50
2015,06,27,15,04,28.60
2015,06,27,15,05,28.70
2015,06,27,15,06,28.70
2015,06,27,15,07,28.80
2015,06,27,15,08,28.80
2015,06,27,15,09,28.90
2015,06,27,15,10,29.10
2015,06,27,15,11,29.30
2015,06,27,15,12,29.40
2015,06,27,15,13,29.40
2015,06,27,15,14,29.50
2015,06,27,15,15,29.60
2015,06,27,15,16,29.60
2015,06,27,15,17,29.70
2015,06,27,15,18,29.90
2015,06,27,15,19,29.90
2015,06,27,15,20,29.90
2015,06,27,15,21,29.90
2015,06,27,15,22,29.80
2015,06,27,15,23,29.80
2015,06,27,15,24,29.90
2015,06,27,15,25,30.00
2015,06,27,15,26,30.10
2015,06,27,15,27,30.30
2015,06,27,15,28,30.50
2015,06,27,15,29,30.60
2015,06,27,15,30,30.60
2015,06,27,15,31,30.60
2015,06,27,15,32,30.60
2015,06,27,15,33,30.50
2015,06,27,15,34,30.50
2015,06,27,15,35,30.50
2015,06,27,15,36,30.60
2015,06,27,15,37,30.60
2015,06,27,15,38,30.70
2015,06,27,15,39,30.80
2015,06,27,15,40,31.00
2015,06,27,15,41,31.10
2015,06,27,15,42,31.20
2015,06,27,15,43,31.30
2015,06,27,15,44,31.40
2015,06,27,15,45,31.40
2015,06,27,15,46,31.50
2015,06,27,15,47,31.60
2015,06,27,15,48,31.70
2015,06,27,15,49,31.80
2015,06,27,15,50,31.80
2015,06,27,15,51,31.80
2015,06,27,15,52,31.80
2015,06,27,15,53,31.70
2015,06,27,15,54,31.60
2015,06,27,15,55,31.50
2015,06,27,15,56,31.50
2015,06,27,15,57,31.50
2015,06,27,15,58,31.50
2015,06,27,15,59,31.50
2015,06,27,16,00,31.50
2015,06,27,16,01,31.60
2015,06,27,16,02,31.70
2015,06,27,16,03,31.70
2015,06,27,16,04,31.70
2015,06,27,16,05,31.60
2015,06,27,16,06,31.60
2015,06,27,16,07,31.50
2015,06,27,16,08,31.50
2015,06,27,16,09,31.50
2015,06,27,16,10,31.50
2015,06,27,16,11,31.60
2015,06,27,16,12,31.70
2015,06,27,16,13,31.70
2015,06,27,16,14,31.70
2015,06,27,16,15,31.60
2015,06,27,16,16,31.50
2015,06,27,16,17,31.50
2015,06,27,16,18,31.40
2015,06,27,16,19,31.40
2015,06,27,16,20,31.40
2015,06,27,16,21,31.40
2015,06,27,16,22,31.50
2015,06,27,16,23,31.60
2015,06,27,16,24,31.60
2015,06,27,16,25,31.70
2015,06,27,16,26,31.70
2015,06,27,16,27,31.80
2015,06,27,16,28,31.80
2015,06,27,16,29,31.80
2015,06,27,16,30,31.90
2015,06,27,16,31,31.90
2015,06,27,16,32,31.90
2015,06,27,16,33,31.90
2015,06,27,16,34,31.90
2015,06,27,16,35,31.80
2015,06,27,16,36,31.50
2015,06,27,16,37,31.10
2015,06,27,16,38,30.80
2015,06,27,16,39,30.50
2015,06,27,16,40,30.30
2015,06,27,16,41,30.20
2015,06,27,16,42,30.20
2015,06,27,16,43,30.10
2015,06,27,16,44,30.10
2015,06,27,16,45,30.00
2015,06,27,16,46,30.00
2015,06,27,16,47,29.80
2015,06,27,16,48,29.70
2015,06,27,16,49,29.70
2015,06,27,16,50,29.70
2015,06,27,16,51,29.70
2015,06,27,16,52,29.60
2015,06,27,16,53,29.60
2015,06,27,16,54,29.50
2015,06,27,16,55,29.40
2015,06,27,16,56,29.30
2015,06,27,16,57,29.30
2015,06,27,16,58,29.30
2015,06,27,16,59,29.40
2015,06,27,17,00,29.40
2015,06,27,17,01,29.50
2015,06,27,17,02,29.60
2015,06,27,17,03,29.60
2015,06,27,17,04,29.60
2015,06,27,17,05,29.70
2015,06,27,17,06,29.70
2015,06,27,17,07,29.80
2015,06,27,17,08,29.80
2015,06,27,17,09,29.90
2015,06,27,17,10,29.90
2015,06,27,17,11,30.00
2015,06,27,17,12,30.10
2015,06,27,17,13,30.10
2015,06,27,17,14,30.10
2015,06,27,17,15,30.10
2015,06,27,17,16,30.20
2015,06,27,17,17,30.20
2015,06,27,17,18,30.20
2015,06,27,17,19,30.20